CUA5977 ZBAD-ZSPD

Flight info

Callsign CUA5977
Flight time N/A
Altitude 35100
Route ELKU4K ELKUR W40 YQG/K0861S1100 W142 DALIM/K0859S1070 A593 DPX A470 DALNU W166 ZJ W167 SASAN SAS91A
Aircraft B738/M-SDE2E3FGHIRWXY/LB1

Departure

Time 2026-04-13 15:28
Airport Beijing Daxing International Airport (ZBAD)

Arrival

Time N/A
Airport Shanghai Pudong International Airport (ZSPD)
Time Latitude Longitude Altitude Speed Heading
2026-04-13 15:05 39.50949 116.41500 90 ft 0 kts 177°
2026-04-13 15:15 39.50968 116.41499 90 ft 3 kts 176°
2026-04-13 15:16 39.50990 116.41497 90 ft 3 kts 176°
2026-04-13 15:16 39.51014 116.41495 90 ft 3 kts 175°
2026-04-13 15:16 39.51038 116.41492 90 ft 3 kts 174°
2026-04-13 15:16 39.51043 116.41491 90 ft 0 kts 173°
2026-04-13 15:19 39.51032 116.41496 90 ft 4 kts 152°
2026-04-13 15:20 39.51023 116.41544 90 ft 6 kts 66°
2026-04-13 15:20 39.51031 116.41591 90 ft 5 kts 105°
2026-04-13 15:20 39.51023 116.41631 90 ft 4 kts 105°
2026-04-13 15:20 39.51011 116.41705 90 ft 11 kts 98°
2026-04-13 15:21 39.51009 116.41804 90 ft 10 kts 87°
2026-04-13 15:21 39.51014 116.41890 90 ft 9 kts 84°
2026-04-13 15:21 39.51022 116.41965 90 ft 8 kts 83°
2026-04-13 15:21 39.51031 116.42061 90 ft 12 kts 82°
2026-04-13 15:22 39.51026 116.42167 90 ft 11 kts 128°
2026-04-13 15:22 39.50956 116.42194 90 ft 10 kts 174°
2026-04-13 15:22 39.50890 116.42203 90 ft 8 kts 172°
2026-04-13 15:22 39.50833 116.42213 90 ft 7 kts 173°
2026-04-13 15:23 39.50784 116.42220 90 ft 6 kts 173°
2026-04-13 15:23 39.50743 116.42227 90 ft 5 kts 173°
2026-04-13 15:23 39.50702 116.42233 90 ft 8 kts 173°
2026-04-13 15:23 39.50623 116.42246 90 ft 13 kts 173°
2026-04-13 15:24 39.50532 116.42261 90 ft 12 kts 173°
2026-04-13 15:24 39.50450 116.42274 90 ft 11 kts 173°
2026-04-13 15:24 39.50377 116.42284 90 ft 9 kts 175°
2026-04-13 15:24 39.50312 116.42293 90 ft 8 kts 172°
2026-04-13 15:25 39.50256 116.42303 90 ft 7 kts 172°
2026-04-13 15:25 39.50208 116.42311 90 ft 6 kts 172°
2026-04-13 15:25 39.50168 116.42318 90 ft 6 kts 172°
2026-04-13 15:25 39.50136 116.42373 90 ft 9 kts 89°
2026-04-13 15:26 39.50139 116.42454 90 ft 8 kts 84°
2026-04-13 15:26 39.50146 116.42522 90 ft 7 kts 82°
2026-04-13 15:26 39.50153 116.42604 90 ft 10 kts 85°
2026-04-13 15:26 39.50114 116.42662 90 ft 8 kts 169°
2026-04-13 15:27 39.50093 116.42666 90 ft 0 kts 173°
2026-04-13 15:27 39.50020 116.42677 90 ft 34 kts 172°
2026-04-13 15:28 39.49616 116.42741 90 ft 90 kts 173°
2026-04-13 15:28 39.48741 116.42879 98 ft 159 kts 173°
2026-04-13 15:28 39.47583 116.43060 710 ft 176 kts 172°
2026-04-13 15:28 39.46288 116.43343 1229 ft 204 kts 160°
2026-04-13 15:29 39.44964 116.44254 1667 ft 235 kts 144°
2026-04-13 15:29 39.43765 116.45828 2237 ft 248 kts 124°
2026-04-13 15:29 39.42953 116.47724 3270 ft 246 kts 109°
2026-04-13 15:29 39.42793 116.49998 3775 ft 264 kts 83°
2026-04-13 15:30 39.43159 116.52339 3912 ft 271 kts 76°
2026-04-13 15:30 39.43574 116.54720 3909 ft 269 kts 78°
2026-04-13 15:30 39.43900 116.57098 3910 ft 271 kts 81°
2026-04-13 15:30 39.44176 116.59504 3909 ft 270 kts 82°
2026-04-13 15:31 39.44432 116.61895 3909 ft 270 kts 82°
2026-04-13 15:31 39.44690 116.64301 3909 ft 271 kts 82°
2026-04-13 15:31 39.44936 116.66788 4224 ft 284 kts 84°
2026-04-13 15:31 39.45166 116.69315 4841 ft 286 kts 84°
2026-04-13 15:32 39.45392 116.71865 4906 ft 280 kts 85°
2026-04-13 15:32 39.45409 116.74342 4901 ft 276 kts 99°
2026-04-13 15:32 39.44778 116.76666 4899 ft 273 kts 124°
2026-04-13 15:32 39.43458 116.78451 5230 ft 284 kts 146°
2026-04-13 15:33 39.41830 116.79742 6340 ft 276 kts 156°
2026-04-13 15:33 39.40079 116.80735 7205 ft 277 kts 161°
2026-04-13 15:33 39.38256 116.81609 8069 ft 279 kts 163°
2026-04-13 15:34 39.34618 116.83351 9739 ft 284 kts 161°
2026-04-13 15:34 39.32778 116.84269 10424 ft 291 kts 161°
2026-04-13 15:34 39.30819 116.85255 10871 ft 308 kts 161°
2026-04-13 15:34 39.28793 116.86279 11266 ft 324 kts 161°
2026-04-13 15:35 39.26623 116.87375 11669 ft 341 kts 161°
2026-04-13 15:35 39.24359 116.88518 12038 ft 357 kts 160°
2026-04-13 15:35 39.22015 116.89700 12410 ft 373 kts 160°
2026-04-13 15:35 39.19594 116.90921 13040 ft 379 kts 160°
2026-04-13 15:36 39.17113 116.92173 13742 ft 383 kts 160°
2026-04-13 15:36 39.14632 116.93424 14405 ft 388 kts 160°
2026-04-13 15:36 39.12115 116.94692 15040 ft 394 kts 160°
2026-04-13 15:36 39.09528 116.95994 15713 ft 398 kts 160°
2026-04-13 15:37 39.06952 116.97289 16318 ft 403 kts 161°
2026-04-13 15:37 39.04327 116.98608 16919 ft 407 kts 161°
2026-04-13 15:37 39.01672 116.99941 17503 ft 412 kts 161°
2026-04-13 15:37 38.99005 117.01279 18116 ft 416 kts 161°
2026-04-13 15:38 38.96292 117.02640 18681 ft 420 kts 161°
2026-04-13 15:38 38.93561 117.03985 19290 ft 423 kts 163°
2026-04-13 15:38 38.90764 117.05048 19836 ft 424 kts 171°
2026-04-13 15:38 38.87838 117.05529 20406 ft 423 kts 181°
2026-04-13 15:39 38.84893 117.05339 20956 ft 422 kts 191°
2026-04-13 15:39 38.82052 117.04497 21467 ft 422 kts 201°
2026-04-13 15:39 38.79391 117.03036 21997 ft 421 kts 211°
2026-04-13 15:39 38.76958 117.00977 22542 ft 418 kts 222°
2026-04-13 15:40 38.74859 116.98406 23071 ft 416 kts 232°
2026-04-13 15:40 38.73177 116.95436 23576 ft 416 kts 241°
2026-04-13 15:40 38.71932 116.92097 24167 ft 412 kts 251°
2026-04-13 15:40 38.71108 116.88637 24782 ft 409 kts 258°
2026-04-13 15:41 38.70620 116.85047 25281 ft 411 kts 262°
2026-04-13 15:41 38.70076 116.81481 25829 ft 411 kts 257°
2026-04-13 15:41 38.69159 116.78058 26353 ft 413 kts 249°
2026-04-13 15:41 38.67755 116.74822 26802 ft 419 kts 239°
2026-04-13 15:42 38.65910 116.71949 27267 ft 424 kts 230°
2026-04-13 15:42 38.63649 116.69482 27717 ft 432 kts 221°
2026-04-13 15:42 38.61041 116.67513 28102 ft 442 kts 212°
2026-04-13 15:42 38.58152 116.66133 28735 ft 447 kts 203°
2026-04-13 15:43 38.55083 116.65382 29441 ft 450 kts 195°
2026-04-13 15:43 38.51969 116.64971 29972 ft 450 kts 194°
2026-04-13 15:43 38.48881 116.64628 30486 ft 449 kts 193°
2026-04-13 15:43 38.45780 116.64302 31057 ft 445 kts 193°
2026-04-13 15:44 38.42703 116.63983 31641 ft 441 kts 193°
2026-04-13 15:44 38.39680 116.63666 32199 ft 437 kts 193°
2026-04-13 15:44 38.36631 116.63340 32593 ft 437 kts 194°
2026-04-13 15:44 38.33625 116.63034 32948 ft 439 kts 192°
2026-04-13 15:45 38.30555 116.62953 33507 ft 440 kts 187°
2026-04-13 15:45 38.27500 116.63274 34077 ft 442 kts 181°
2026-04-13 15:45 38.24449 116.63992 34286 ft 451 kts 176°
2026-04-13 15:45 38.21419 116.64991 34603 ft 454 kts 173°
2026-04-13 15:46 38.18398 116.66130 34927 ft 454 kts 172°
2026-04-13 15:46 38.15381 116.67316 35071 ft 457 kts 172°
2026-04-13 15:46 38.09300 116.69712 35125 ft 455 kts 172°
2026-04-13 15:47 38.03280 116.72083 35128 ft 456 kts 172°
2026-04-13 15:47 37.97207 116.74435 35127 ft 457 kts 172°
2026-04-13 15:48 37.91133 116.76768 35127 ft 455 kts 172°
2026-04-13 15:48 37.85066 116.79081 35126 ft 453 kts 172°
2026-04-13 15:49 37.79006 116.81377 35125 ft 454 kts 172°
2026-04-13 15:49 37.73781 116.83355 35126 ft 453 kts 172°
2026-04-13 15:50 37.68069 116.85512 35121 ft 454 kts 172°